EN

Hourly Weather Al Manqaf

Today, 23 January, Saturday

Time Temperature Precipitation Wind Pressure Humidity
00:00 +9°C° 0 mm 6 mps 765 mmHg 34%
01:00 +9°C° 0 mm 7 mps 764 mmHg 36%
02:00 +9°C° 0 mm 7 mps 764 mmHg 38%
03:00 +9°C° 0 mm 7 mps 764 mmHg 40%
04:00 +8°C° 0 mm 7 mps 764 mmHg 42%
05:00 +8°C° 0 mm 6 mps 765 mmHg 44%
06:00 +8°C° 0 mm 6 mps 765 mmHg 46%
07:00 +8°C° 0 mm 6 mps 765 mmHg 43%
08:00 +9°C° 0 mm 6 mps 766 mmHg 39%
09:00 +9°C° 0 mm 6 mps 766 mmHg 35%
10:00 +12°C° 0 mm 5 mps 766 mmHg 31%
11:00 +13°C° 0 mm 5 mps 766 mmHg 27%
12:00 +14°C° 0 mm 4 mps 765 mmHg 22%
13:00 +15°C° 0 mm 4 mps 765 mmHg 21%
14:00 +15°C° 0 mm 4 mps 764 mmHg 19%
15:00 +17°C° 0 mm 3 mps 764 mmHg 18%
16:00 +17°C° 0 mm 3 mps 764 mmHg 19%
17:00 +16°C° 0 mm 3 mps 764 mmHg 20%
18:00 +16°C° 0 mm 3 mps 764 mmHg 21%
19:00 +14°C° 0 mm 3 mps 764 mmHg 23%
20:00 +14°C° 0 mm 3 mps 764 mmHg 24%
21:00 +13°C° 0 mm 3 mps 764 mmHg 25%
22:00 +13°C° 0 mm 3 mps 764 mmHg 25%
23:00 +13°C° 0 mm 4 mps 764 mmHg 26%

Tomorrow, 24 January, Sunday

Time Temperature Precipitation Wind Pressure Humidity
00:00 +13°C° 0 mm 4 mps 764 mmHg 26%
01:00 +13°C° 0 mm 4 mps 764 mmHg 26%
02:00 +12°C° 0 mm 4 mps 764 mmHg 26%
03:00 +12°C° 0 mm 4 mps 764 mmHg 26%
04:00 +12°C° 0 mm 4 mps 764 mmHg 27%
05:00 +12°C° 0 mm 4 mps 764 mmHg 28%
06:00 +12°C° 0 mm 4 mps 764 mmHg 28%
07:00 +12°C° 0 mm 4 mps 764 mmHg 27%
08:00 +13°C° 0 mm 4 mps 765 mmHg 26%
09:00 +13°C° 0 mm 4 mps 765 mmHg 25%
10:00 +14°C° 0 mm 4 mps 765 mmHg 23%
11:00 +16°C° 0 mm 3 mps 764 mmHg 21%
12:00 +17°C° 0 mm 3 mps 764 mmHg 18%
13:00 +18°C° 0 mm 3 mps 764 mmHg 17%
14:00 +18°C° 0 mm 3 mps 763 mmHg 16%
15:00 +19°C° 0 mm 2 mps 763 mmHg 15%
16:00 +19°C° 0 mm 2 mps 763 mmHg 16%
17:00 +18°C° 0 mm 2 mps 763 mmHg 17%
18:00 +18°C° 0 mm 2 mps 763 mmHg 18%
19:00 +17°C° 0 mm 2 mps 763 mmHg 18%
20:00 +17°C° 0 mm 3 mps 763 mmHg 19%
21:00 +16°C° 0 mm 3 mps 763 mmHg 20%
22:00 +16°C° 0 mm 3 mps 763 mmHg 21%
23:00 +14°C° 0 mm 3 mps 763 mmHg 21%

Day after tomorrow, 25 January, Monday

Time Temperature Precipitation Wind Pressure Humidity
00:00 +14°C° 0 mm 3 mps 763 mmHg 22%
01:00 +14°C° 0 mm 3 mps 763 mmHg 22%
02:00 +14°C° 0 mm 3 mps 763 mmHg 21%
03:00 +13°C° 0 mm 3 mps 763 mmHg 21%
04:00 +13°C° 0 mm 4 mps 763 mmHg 22%
05:00 +13°C° 0 mm 4 mps 763 mmHg 23%
06:00 +13°C° 0 mm 4 mps 763 mmHg 24%
07:00 +13°C° 0 mm 4 mps 763 mmHg 23%
08:00 +14°C° 0 mm 3 mps 764 mmHg 22%
09:00 +16°C° 0 mm 3 mps 764 mmHg 21%
10:00 +17°C° 0 mm 3 mps 764 mmHg 18%
11:00 +18°C° 0 mm 3 mps 764 mmHg 16%
12:00 +19°C° 0 mm 3 mps 763 mmHg 14%
13:00 +20°C° 0 mm 3 mps 763 mmHg 13%
14:00 +20°C° 0 mm 3 mps 763 mmHg 13%
15:00 +21°C° 0 mm 3 mps 763 mmHg 12%
16:00 +20°C° 0 mm 2 mps 763 mmHg 14%
17:00 +20°C° 0 mm 2 mps 763 mmHg 15%
18:00 +20°C° 0 mm 1 mps 762 mmHg 16%
19:00 +20°C° 0 mm 1 mps 763 mmHg 17%
20:00 +19°C° 0 mm 1 mps 763 mmHg 18%
21:00 +19°C° 0 mm 1 mps 763 mmHg 19%
22:00 +18°C° 0 mm 1 mps 763 mmHg 19%
23:00 +17°C° 0 mm 2 mps 763 mmHg 19%

26 January, Tuesday

Time Temperature Precipitation Wind Pressure Humidity
00:00 +17°C° 0 mm 2 mps 762 mmHg 19%
01:00 +17°C° 0 mm 2 mps 762 mmHg 20%
02:00 +16°C° 0 mm 3 mps 762 mmHg 20%
03:00 +16°C° 0 mm 3 mps 762 mmHg 21%
04:00 +16°C° 0 mm 3 mps 762 mmHg 22%
05:00 +16°C° 0 mm 3 mps 763 mmHg 23%
06:00 +14°C° 0 mm 3 mps 763 mmHg 23%
07:00 +16°C° 0 mm 3 mps 763 mmHg 22%
08:00 +17°C° 0 mm 3 mps 763 mmHg 21%
09:00 +17°C° 0 mm 3 mps 764 mmHg 19%
10:00 +19°C° 0 mm 3 mps 764 mmHg 18%
11:00 +20°C° 0 mm 3 mps 763 mmHg 16%
12:00 +21°C° 0 mm 2 mps 763 mmHg 15%
13:00 +21°C° 0 mm 2 mps 763 mmHg 15%
14:00 +23°C° 0 mm 2 mps 762 mmHg 15%
15:00 +24°C° 0 mm 2 mps 762 mmHg 14%
16:00 +23°C° 0 mm 1 mps 762 mmHg 16%
17:00 +22°C° 0 mm 1 mps 762 mmHg 18%
18:00 +19°C° 0 mm 0 mps 761 mmHg 19%
19:00 +18°C° 0 mm 0 mps 762 mmHg 20%
20:00 +20°C° 0 mm 1 mps 762 mmHg 20%
21:00 +19°C° 0 mm 1 mps 762 mmHg 20%
22:00 +19°C° 0 mm 1 mps 762 mmHg 21%
23:00 +19°C° 0 mm 1 mps 762 mmHg 21%

27 January, Wednesday

Time Temperature Precipitation Wind Pressure Humidity
00:00 +18°C° 0 mm 1 mps 761 mmHg 21%
01:00 +18°C° 0 mm 1 mps 761 mmHg 22%
02:00 +18°C° 0 mm 1 mps 761 mmHg 22%
03:00 +16°C° 0 mm 1 mps 761 mmHg 23%
04:00 +16°C° 0 mm 1 mps 761 mmHg 23%
05:00 +16°C° 0 mm 1 mps 761 mmHg 24%
06:00 +15°C° 0 mm 1 mps 761 mmHg 25%
07:00 +18°C° 0 mm 1 mps 761 mmHg 24%
08:00 +19°C° 0 mm 1 mps 761 mmHg 22%
09:00 +19°C° 0 mm 0 mps 762 mmHg 20%
10:00 +22°C° 0 mm 1 mps 761 mmHg 19%
11:00 +23°C° 0 mm 1 mps 761 mmHg 17%
12:00 +24°C° 0 mm 1 mps 761 mmHg 16%
13:00 +24°C° 0 mm 2 mps 760 mmHg 16%
14:00 +25°C° 0 mm 2 mps 760 mmHg 16%
15:00 +25°C° 0 mm 3 mps 759 mmHg 16%
16:00 +24°C° 0 mm 3 mps 759 mmHg 19%
17:00 +22°C° 0 mm 4 mps 759 mmHg 22%
18:00 +20°C° 0 mm 4 mps 759 mmHg 26%
19:00 +20°C° 0 mm 4 mps 759 mmHg 28%
20:00 +20°C° 0 mm 5 mps 759 mmHg 30%
21:00 +19°C° 0 mm 5 mps 759 mmHg 32%
22:00 +19°C° 0 mm 5 mps 759 mmHg 33%
23:00 +19°C° 0 mm 5 mps 758 mmHg 34%

28 January, Thursday

Time Temperature Precipitation Wind Pressure Humidity
00:00 +19°C° 0 mm 5 mps 758 mmHg 36%
01:00 +17°C° 0 mm 5 mps 758 mmHg 36%
02:00 +17°C° 0 mm 6 mps 757 mmHg 37%
03:00 +17°C° 0 mm 6 mps 757 mmHg 38%
04:00 +17°C° 0 mm 6 mps 757 mmHg 37%
05:00 +17°C° 0 mm 6 mps 757 mmHg 36%
06:00 +16°C° 0 mm 6 mps 757 mmHg 35%
07:00 +17°C° 0 mm 7 mps 757 mmHg 33%
08:00 +18°C° 0 mm 8 mps 758 mmHg 30%
09:00 +20°C° 0 mm 8 mps 758 mmHg 27%
10:00 +22°C° 0 mm 8 mps 757 mmHg 25%
11:00 +24°C° 0 mm 8 mps 757 mmHg 24%
12:00 +27°C° 0 mm 8 mps 757 mmHg 22%
13:00 +27°C° 0 mm 8 mps 756 mmHg 22%
14:00 +28°C° 0 mm 7 mps 756 mmHg 22%
15:00 +29°C° 0 mm 7 mps 755 mmHg 22%
16:00 +27°C° 0 mm 6 mps 756 mmHg 28%
17:00 +25°C° 0 mm 5 mps 756 mmHg 34%
18:00 +23°C° 0 mm 5 mps 756 mmHg 40%
19:00 +22°C° 0 mm 4 mps 756 mmHg 41%
20:00 +21°C° 0 mm 3 mps 757 mmHg 43%
21:00 +21°C° 0 mm 3 mps 757 mmHg 44%
Show more